Погода в Постойне

Словения     45°46′31″N   14°12′51″E
темп.,
°C
ветер,
м/с
пор.,
м/с
влажн.,
%
обл.,
%
осадки,
мм/ч
давл.,
гПа
погр.,
м
11 мая, вт
вт1123:00+8ю11655 0.0 101713
02:00+8ю226515 0.0 101617
05:00+9ююв225943 0.0 101620
08:00+14ю13590 0.0 1014170
11:00+19юз584727 0.0 10131203
14:00+20юз575199 0.0 10111770
17:00+19ююз4753100 0.0 10101006
20:00+13ююз1182100 0.0 100917
12 мая, ср
ср1223:00+11ю1178100 0.0 100921
02:00+10ююв1196100 1.6 100725
05:00+10юз1499100 11.5 1007354
08:00+10ююз1295100 12.9 1007301
11:00+11юз369488 1.6 1008731
14:00+10юз2497100 2.9 1008357
17:00+11юз1396100 1.1 1007334
20:00+9ююв129899 1.9 1007116
13 мая, чт
чт1323:00+9юз1299100 1.4 1007101
02:00+9ююз1199100 7.4 100661
05:00+9св1199100 3.1 100458
08:00+9с1199100 7.4 1005111
11:00+9ююз2397100 4.8 1005283
14:00+11юз3587100 6.6 1005680
17:00+9юз1397100 2.4 1005251
20:00+9ю129797 2.9 100664
14 мая, пт
пт1423:00+8ю2699100 2.4 1007438
02:00+8ю129672 4.7 100772
05:00+7юв1296100 0.1 100745
08:00+9ююв239185 0.2 1007287
11:00+12ююз3477100 0.7 1008936
14:00+9ююз259742 2.8 1009395
17:00+11юз3894100 1.6 1009941
20:00+9ююз249771 1.9 1010150
15 мая, сб
сб1523:00+7ююз239999 0.3 1011118
02:00+8ююв1299100 0.6 101077
05:00+8всв1198100 1.7 100940
08:00+8св2399100 4.0 1010133
11:00+9св139588 0.9 1011286
14:00+13св1282100 2.3 1009696
17:00+12ссз118912 1.7 1010381
20:00+9зюз11935 3.3 100910